Cape Byron Observation History
Time Wind Speed Temp Pressure Rel. Hum Rain
14/09:30am WSW 11-16 kts 17.3°c 1014.5 hPa 58% 0.0mm
14/09:00am W 9-14 kts 16.7°c 1014.4 hPa 59% 0.0mm
14/08:30am W 11-15 kts 16.0°c 1014.2 hPa 57% 0.0mm
14/08:00am W 12-16 kts 15.4°c 1014.0 hPa 58% 0.0mm
14/07:30am W 13-16 kts 15.0°c 1013.4 hPa 57% 0.0mm
14/07:00am W 12-15 kts 13.3°c 1013.0 hPa 64% 0.0mm
14/06:30am WSW 12-13 kts 13.2°c 1012.7 hPa 66% 0.0mm
14/06:00am W 13-16 kts 14.4°c 1012.4 hPa 60% 0.0mm
14/05:30am W 17-20 kts 14.3°c 1011.8 hPa 61% 0.0mm
14/05:00am W 13-17 kts 14.0°c 1011.6 hPa 63% 0.0mm
14/04:30am W 14-17 kts 14.5°c 1011.4 hPa 61% 0.0mm
14/04:00am W 15-19 kts 15.1°c 1011.3 hPa 58% 0.0mm
14/03:30am W 16-20 kts 15.2°c 1011.2 hPa 57% 0.0mm
14/03:00am W 16-21 kts 15.2°c 1011.0 hPa 57% 0.0mm
14/02:30am WSW 18-24 kts 15.6°c 1011.1 hPa 56% 0.0mm
14/02:00am WSW 17-22 kts 15.5°c 1011.5 hPa 57% 0.0mm
14/01:30am WSW 17-23 kts 15.9°c 1011.7 hPa 55% 0.0mm
14/01:00am WSW 16-21 kts 16.1°c 1011.6 hPa 54% 0.0mm
14/12:30am WSW 18-23 kts 16.3°c 1011.7 hPa 54% 0.0mm
14/12:00am WSW 17-23 kts 16.4°c 1011.9 hPa 54% 0.0mm
Time Wind Speed Temp Pressure Rel. Hum Rain
13/11:30pm WSW 17-24 kts 16.9°c 1012.0 hPa 52% 0.0mm
13/11:00pm W 16-22 kts 16.7°c 1012.2 hPa 53% 0.0mm
13/10:30pm W 16-20 kts 16.6°c 1012.5 hPa 54% 0.0mm
13/10:00pm W 16-21 kts 16.9°c 1012.5 hPa 54% 0.0mm
13/09:30pm W 16-19 kts 17.0°c 1012.5 hPa 54% 0.0mm
13/09:00pm W 16-21 kts 17.3°c 1012.6 hPa 53% 0.0mm
13/08:30pm W 15-21 kts 17.7°c 1012.4 hPa 50% 0.0mm
13/08:00pm W 16-21 kts 18.3°c 1012.1 hPa 47% 0.0mm
13/07:30pm W 13-18 kts 18.7°c 1011.9 hPa 45% 0.0mm
13/07:00pm WNW 11-14 kts 19.3°c 1011.8 hPa 42% 0.0mm
13/06:30pm WNW 10-13 kts 19.1°c 1011.5 hPa 47% 0.0mm
13/06:00pm WNW 9-12 kts 19.3°c 1011.3 hPa 50% 0.0mm
13/05:30pm WNW 8-10 kts 19.7°c 1011.1 hPa 52% 0.0mm
13/05:00pm WNW 6-8 kts 20.2°c 1010.8 hPa 68% 0.0mm
13/04:30pm NW 6-9 kts 21.5°c 1010.6 hPa 50% 0.0mm
13/04:00pm WNW 8-12 kts 22.3°c 1010.3 hPa 52% 0.0mm
13/03:30pm WSW 3-7 kts 22.7°c 1010.1 hPa 70% 0.0mm
13/03:00pm WNW 9-16 kts 23.2°c 1010.1 hPa 61% 0.0mm
13/02:30pm WSW 11-14 kts 22.4°c 1010.0 hPa 56% 0.0mm
13/02:00pm WSW 11-15 kts 22.6°c 1010.2 hPa 53% 0.0mm
13/01:30pm WSW 11-17 kts 22.6°c 1010.4 hPa 56% 0.0mm
13/01:00pm WSW 10-15 kts 22.3°c 1010.7 hPa 61% 0.0mm
13/12:30pm WSW 9-15 kts 21.7°c 1011.2 hPa 64% 0.0mm
13/12:00pm WSW 11-17 kts 21.8°c 1011.7 hPa 69% 0.0mm
13/11:30am WSW 10-15 kts 21.4°c 1012.1 hPa 72% 0.0mm
13/11:00am W 9-14 kts 21.0°c 1012.6 hPa 74% 0.0mm
13/10:30am WSW 11-14 kts 20.2°c 1012.8 hPa 76% 0.0mm
13/10:00am WSW 14-19 kts 19.3°c 1013.0 hPa 80% 0.0mm
13/09:30am WSW 12-18 kts 19.0°c 1013.3 hPa 82% 0.0mm
13/09:00am WSW 15-21 kts 18.5°c 1013.3 hPa 86% 0.2mm
13/08:30am WSW 13-17 kts 18.1°c 1013.3 hPa 88% 0.2mm
13/08:00am WSW 11-16 kts 17.7°c 1013.4 hPa 91% 0.2mm
13/07:30am WSW 13-17 kts 17.5°c 1013.1 hPa 91% 0.2mm
13/07:00am W 11-15 kts 17.2°c 1013.1 hPa 93% 0.2mm
13/06:30am W 13-16 kts 17.2°c 1013.0 hPa 94% 0.2mm
13/06:00am WSW 11-14 kts 17.1°c 1012.9 hPa 95% 0.2mm
13/05:30am W 11-14 kts 17.2°c 1012.9 hPa 95% 0.2mm
13/05:00am WSW 13-17 kts 17.3°c 1012.8 hPa 96% 0.2mm
13/04:30am WSW 12-17 kts 17.3°c 1012.7 hPa 97% 0.2mm
13/04:00am WSW 13-18 kts 17.3°c 1012.8 hPa 97% 0.2mm
13/03:30am WSW 12-15 kts 17.7°c 1013.1 hPa 95% 0.2mm
13/03:00am WSW 14-18 kts 17.6°c 1013.2 hPa 96% 0.2mm
13/02:30am WSW 14-17 kts 17.4°c 1013.7 hPa 97% 0.2mm
13/02:00am WSW 12-16 kts 17.5°c 1013.9 hPa 97% 0.2mm
13/01:30am WSW 14-17 kts 17.7°c 1014.3 hPa 97% 0.2mm
13/01:00am WSW 13-16 kts 17.5°c 1014.3 hPa 98% 0.2mm
13/12:30am WSW 11-14 kts 17.7°c 1014.5 hPa 95% 0.2mm
13/12:00am W 9-11 kts 18.4°c 1014.8 hPa 93% 0.2mm
Time Wind Speed Temp Pressure Rel. Hum Rain
12/11:30pm WNW 6-9 kts 18.7°c 1015.2 hPa 95% 0.2mm
12/11:00pm WNW 8-10 kts 18.8°c 1015.3 hPa 95% 0.2mm
12/10:30pm WNW 7-9 kts 18.8°c 1015.5 hPa 96% 0.2mm
12/10:00pm WNW 5-9 kts 19.2°c 1015.7 hPa 95% 0.2mm
12/09:30pm WNW 6-8 kts 19.4°c 1015.8 hPa 94% 0.0mm
12/09:00pm NW 5-8 kts 19.9°c 1015.6 hPa 92% 0.0mm
12/08:30pm N 6-7 kts 20.9°c 1016.1 hPa 88% 0.0mm
12/08:00pm NE 7-10 kts 20.7°c 1016.4 hPa 87% 0.0mm
12/07:30pm NE 15-19 kts 20.8°c 1015.8 hPa 85% 0.0mm
12/07:00pm ENE 15-19 kts 20.7°c 1016.2 hPa 91% 0.0mm
12/06:30pm NE 16-20 kts 20.9°c 1016.3 hPa 89% 0.0mm
12/06:00pm ENE 10-12 kts 20.5°c 1016.1 hPa 88% 0.0mm
12/05:30pm ENE 7-11 kts 20.5°c 1016.2 hPa 88% 0.0mm
12/05:00pm ENE 9-10 kts 20.4°c 1015.9 hPa 86% 0.0mm
12/04:30pm ENE 6-9 kts 20.8°c 1016.1 hPa 87% 0.0mm
12/04:00pm E 6-9 kts 20.7°c 1015.9 hPa 85% 0.0mm
12/03:30pm E 7-10 kts 20.4°c 1015.7 hPa 86% 0.0mm
12/03:00pm E 10-15 kts 20.2°c 1015.8 hPa 87% 0.0mm
12/02:30pm SSW 7-9 kts 20.5°c 1016.2 hPa 89% 0.0mm
12/02:00pm S 6-7 kts 21.0°c 1016.1 hPa 84% 0.0mm
12/01:30pm SE 5-6 kts 21.6°c 1016.2 hPa 81% 0.0mm
12/01:00pm E 3-4 kts 22.0°c 1016.3 hPa 80% 0.0mm
12/12:30pm E 3-4 kts 22.5°c 1016.9 hPa 77% 0.0mm
12/12:00pm ESE 1-4 kts 22.6°c 1017.2 hPa 78% 0.0mm
12/11:30am CALM 0-1 kts 21.8°c 1017.8 hPa 78% 0.0mm
12/11:00am CALM 0 kts 21.7°c 1018.2 hPa 80% 0.0mm
12/10:30am CALM 0 kts 21.4°c 1018.8 hPa 80% 0.0mm
12/10:00am CALM 0-2 kts 20.4°c 1019.1 hPa 87% 0.0mm
12/09:30am SW 3-5 kts 19.5°c 1019.2 hPa 84% 0.0mm
12/09:00am SW 6-7 kts 18.6°c 1018.8 hPa 89% 5.8mm
12/08:30am CALM 0-1 kts 19.4°c 1018.5 hPa 83% 5.8mm
12/08:00am NNW 5-7 kts 18.7°c 1018.4 hPa 88% 5.8mm
12/07:30am WNW 8-11 kts 17.9°c 1017.7 hPa 93% 5.8mm
12/07:00am WNW 8-11 kts 17.7°c 1017.5 hPa 93% 5.8mm
12/06:30am NNW 7-8 kts 18.7°c 1017.0 hPa 90% 5.8mm
12/06:00am NW 5-8 kts 18.6°c 1017.0 hPa 92% 5.8mm
12/05:30am N 10-13 kts 19.0°c 1016.8 hPa 91% 5.8mm
12/05:00am N 7-10 kts 18.8°c 1016.5 hPa 94% 5.8mm
12/04:30am NNW 10-14 kts 19.2°c 1016.5 hPa 92% 5.8mm
12/04:00am N 13-17 kts 19.3°c 1016.3 hPa 85% 5.8mm
12/03:30am N 13-16 kts 18.9°c 1016.4 hPa 85% 5.6mm
12/03:00am NW 7-12 kts 17.9°c 1016.8 hPa 91% 5.0mm
12/02:30am NNW 9-17 kts 18.5°c 1017.4 hPa 93% 3.4mm
12/02:00am NNW 12-19 kts 18.4°c 1017.3 hPa 85% 2.4mm
12/01:30am NNE 4-6 kts 21.0°c 1017.1 hPa 93% 0.0mm
12/01:00am N 7-12 kts 21.2°c 1017.0 hPa 94% 0.0mm
12/12:30am N 9-13 kts 21.4°c 1017.1 hPa 92% 0.0mm
12/12:00am N 9-12 kts 21.5°c 1017.5 hPa 91% 0.0mm